GTI556 KORD-KATL

Flight info

Callsign GTI556
Flight time 1h 27m
Altitude 38000
Route CMSKY CARYN CYBIL PXV HITMN NEWBB IHAVE MTHEW CHPPR1
Aircraft B748/H-SDE3FGHIM1M2RWXY/LB1

Departure

Time 2026-05-07 17:19
Airport Chicago O'Hare International Airport (KORD)

Arrival

Time 2026-05-07 18:46
Airport Hartsfield Jackson Atlanta International Airport (KATL)
Time Latitude Longitude Altitude Speed Heading
2026-05-07 16:36 41.99599 -87.89044 666 ft 0 kts
2026-05-07 17:06 41.99577 -87.89044 664 ft 4 kts
2026-05-07 17:06 41.99550 -87.89045 664 ft 4 kts
2026-05-07 17:06 41.99527 -87.89043 665 ft 4 kts 334°
2026-05-07 17:06 41.99513 -87.89022 663 ft 4 kts 277°
2026-05-07 17:07 41.99512 -87.88989 661 ft 1 kts 271°
2026-05-07 17:07 41.99512 -87.88983 661 ft 0 kts 271°
2026-05-07 17:13 41.99512 -87.89008 664 ft 9 kts 271°
2026-05-07 17:14 41.99511 -87.89146 669 ft 21 kts 269°
2026-05-07 17:14 41.99510 -87.89371 674 ft 26 kts 270°
2026-05-07 17:14 41.99511 -87.89587 683 ft 20 kts 271°
2026-05-07 17:14 41.99488 -87.89744 683 ft 19 kts 237°
2026-05-07 17:15 41.99394 -87.89847 680 ft 20 kts 218°
2026-05-07 17:15 41.99264 -87.89991 676 ft 27 kts 218°
2026-05-07 17:15 41.99103 -87.90044 676 ft 24 kts 178°
2026-05-07 17:15 41.98997 -87.90012 673 ft 5 kts 115°
2026-05-07 17:16 41.98996 -87.89893 673 ft 23 kts 89°
2026-05-07 17:16 41.98997 -87.89622 667 ft 33 kts 90°
2026-05-07 17:16 41.98999 -87.89328 671 ft 30 kts 90°
2026-05-07 17:16 41.98996 -87.89094 671 ft 10 kts 95°
2026-05-07 17:17 41.98992 -87.89078 671 ft 1 kts 111°
2026-05-07 17:17 41.98984 -87.89064 670 ft 3 kts 130°
2026-05-07 17:17 41.98940 -87.89040 672 ft 13 kts 172°
2026-05-07 17:17 41.98866 -87.89039 673 ft 8 kts 181°
2026-05-07 17:18 41.98845 -87.89045 673 ft 2 kts 204°
2026-05-07 17:18 41.98828 -87.89140 673 ft 22 kts 275°
2026-05-07 17:18 41.98834 -87.89675 671 ft 104 kts 271°
2026-05-07 17:18 41.98827 -87.91032 683 ft 186 kts 272°
2026-05-07 17:19 41.98886 -87.92892 1579 ft 202 kts 270°
2026-05-07 17:19 41.98958 -87.94789 2806 ft 205 kts 270°
2026-05-07 17:19 41.99027 -87.96763 3412 ft 213 kts 270°
2026-05-07 17:19 41.99080 -87.98859 3652 ft 241 kts 265°
2026-05-07 17:20 41.98641 -88.00988 4437 ft 235 kts 239°
2026-05-07 17:20 41.97510 -88.02634 4884 ft 252 kts 216°
2026-05-07 17:20 41.95825 -88.03392 5463 ft 262 kts 190°
2026-05-07 17:20 41.93978 -88.03033 6177 ft 278 kts 162°
2026-05-07 17:21 41.92323 -88.01659 7093 ft 289 kts 147°
2026-05-07 17:21 41.90737 -87.99988 7990 ft 291 kts 148°
2026-05-07 17:21 41.89046 -87.98415 8725 ft 296 kts 154°
2026-05-07 17:21 41.87241 -87.97121 9622 ft 295 kts 163°
2026-05-07 17:22 41.85281 -87.96405 10337 ft 293 kts 178°
2026-05-07 17:22 41.83220 -87.96097 10849 ft 304 kts 182°
2026-05-07 17:22 41.81186 -87.95873 11237 ft 320 kts 180°
2026-05-07 17:22 41.78901 -87.95459 11609 ft 341 kts 177°
2026-05-07 17:23 41.76513 -87.94906 12149 ft 353 kts 176°
2026-05-07 17:23 41.74059 -87.94357 12813 ft 360 kts 177°
2026-05-07 17:23 41.71652 -87.93881 13512 ft 366 kts 178°
2026-05-07 17:23 41.69133 -87.93390 14214 ft 371 kts 178°
2026-05-07 17:24 41.66547 -87.92859 14890 ft 376 kts 178°
2026-05-07 17:24 41.63939 -87.92317 15564 ft 381 kts 178°
2026-05-07 17:24 41.61330 -87.91784 16253 ft 385 kts 179°
2026-05-07 17:24 41.58659 -87.91246 16950 ft 389 kts 179°
2026-05-07 17:25 41.55968 -87.90700 17621 ft 393 kts 179°
2026-05-07 17:25 41.53248 -87.90147 18310 ft 396 kts 179°
2026-05-07 17:25 41.50643 -87.89616 18868 ft 400 kts 179°
2026-05-07 17:25 41.47887 -87.89057 19442 ft 404 kts 180°
2026-05-07 17:26 41.45088 -87.88491 20010 ft 408 kts 180°
2026-05-07 17:26 41.42264 -87.87925 20599 ft 411 kts 182°
2026-05-07 17:26 41.39454 -87.87868 21148 ft 400 kts 194°
2026-05-07 17:26 41.36657 -87.88160 21706 ft 404 kts 195°
2026-05-07 17:27 41.33830 -87.88441 22263 ft 409 kts 195°
2026-05-07 17:27 41.31008 -87.88692 22790 ft 412 kts 196°
2026-05-07 17:27 41.28134 -87.88950 23420 ft 415 kts 197°
2026-05-07 17:27 41.25238 -87.89213 23959 ft 420 kts 195°
2026-05-07 17:28 41.22255 -87.89168 24452 ft 430 kts 192°
2026-05-07 17:28 41.19283 -87.89074 24923 ft 432 kts 192°
2026-05-07 17:28 41.16260 -87.88988 25395 ft 435 kts 192°
2026-05-07 17:28 41.13209 -87.88899 25863 ft 438 kts 192°
2026-05-07 17:29 41.10146 -87.88803 26282 ft 441 kts 192°
2026-05-07 17:29 41.07106 -87.88708 26738 ft 444 kts 192°
2026-05-07 17:29 41.03996 -87.88615 27205 ft 447 kts 192°
2026-05-07 17:29 41.00871 -87.88522 27669 ft 450 kts 192°
2026-05-07 17:30 40.97860 -87.88430 28113 ft 453 kts 191°
2026-05-07 17:30 40.94728 -87.88335 28569 ft 456 kts 191°
2026-05-07 17:30 40.91533 -87.88238 29037 ft 460 kts 191°
2026-05-07 17:30 40.88343 -87.88144 29414 ft 463 kts 191°
2026-05-07 17:31 40.85097 -87.88045 29880 ft 466 kts 191°
2026-05-07 17:31 40.81874 -87.87947 30297 ft 469 kts 191°
2026-05-07 17:31 40.78594 -87.87848 30671 ft 473 kts 191°
2026-05-07 17:31 40.75292 -87.87749 31064 ft 476 kts 191°
2026-05-07 17:32 40.71960 -87.87649 31447 ft 478 kts 191°
2026-05-07 17:32 40.68617 -87.87549 31840 ft 481 kts 191°
2026-05-07 17:32 40.65294 -87.87449 32219 ft 484 kts 191°
2026-05-07 17:32 40.61905 -87.87348 32600 ft 487 kts 191°
2026-05-07 17:33 40.58497 -87.87246 32981 ft 490 kts 191°
2026-05-07 17:33 40.55138 -87.87145 33347 ft 492 kts 191°
2026-05-07 17:33 40.51697 -87.87039 33914 ft 490 kts 191°
2026-05-07 17:33 40.48288 -87.86934 34394 ft 489 kts 191°
2026-05-07 17:34 40.44884 -87.86835 34790 ft 488 kts 191°
2026-05-07 17:34 40.41478 -87.86737 35206 ft 488 kts 191°
2026-05-07 17:34 40.38073 -87.86635 35611 ft 488 kts 191°
2026-05-07 17:34 40.34711 -87.86534 36005 ft 488 kts 191°
2026-05-07 17:35 40.31308 -87.86433 36392 ft 488 kts 191°
2026-05-07 17:35 40.27904 -87.86306 36775 ft 489 kts 189°
2026-05-07 17:35 40.24524 -87.86132 37126 ft 490 kts 189°
2026-05-07 17:35 40.21099 -87.85962 37414 ft 490 kts 190°
2026-05-07 17:36 40.17671 -87.85822 37767 ft 490 kts 190°
2026-05-07 17:36 40.14301 -87.85686 38055 ft 488 kts 190°
2026-05-07 17:36 40.07553 -87.85375 38043 ft 485 kts 190°
2026-05-07 17:37 40.00902 -87.85091 38010 ft 481 kts 190°
2026-05-07 17:37 39.94206 -87.84796 38062 ft 479 kts 190°
2026-05-07 17:38 39.87564 -87.84507 38068 ft 479 kts 190°
2026-05-07 17:38 39.80889 -87.84215 38076 ft 479 kts 190°
2026-05-07 17:39 39.74253 -87.83926 38084 ft 479 kts 190°
2026-05-07 17:39 39.67585 -87.83637 38087 ft 478 kts 190°
2026-05-07 17:40 39.60961 -87.83349 38086 ft 478 kts 190°
2026-05-07 17:40 39.54444 -87.83068 38063 ft 477 kts 191°
2026-05-07 17:41 39.47927 -87.82787 38079 ft 478 kts 191°
2026-05-07 17:41 39.41610 -87.82514 38081 ft 478 kts 191°
2026-05-07 17:42 39.35104 -87.82234 38081 ft 478 kts 191°
2026-05-07 17:42 39.28633 -87.81956 38086 ft 478 kts 191°
2026-05-07 17:43 39.22114 -87.81676 38087 ft 478 kts 191°
2026-05-07 17:43 39.15640 -87.81400 38089 ft 478 kts 191°
2026-05-07 17:44 39.09136 -87.81122 38049 ft 477 kts 191°
2026-05-07 17:44 39.02638 -87.80845 38094 ft 477 kts 191°
2026-05-07 17:45 38.96281 -87.80574 38093 ft 477 kts 191°
2026-05-07 17:45 38.89669 -87.80291 38093 ft 478 kts 190°
2026-05-07 17:46 38.83012 -87.80008 38099 ft 477 kts 190°
2026-05-07 17:46 38.76377 -87.79729 38100 ft 476 kts 190°
2026-05-07 17:47 38.69778 -87.79449 38100 ft 476 kts 190°
2026-05-07 17:47 38.63135 -87.79170 38065 ft 476 kts 190°
2026-05-07 17:48 38.56519 -87.78890 38111 ft 475 kts 191°
2026-05-07 17:48 38.50097 -87.78622 38109 ft 475 kts 190°
2026-05-07 17:49 38.43477 -87.78343 38104 ft 475 kts 190°
2026-05-07 17:49 38.36865 -87.78067 38100 ft 475 kts 190°
2026-05-07 17:50 38.30292 -87.77792 38096 ft 475 kts 190°
2026-05-07 17:50 38.23676 -87.77517 38106 ft 475 kts 190°
2026-05-07 17:51 38.18171 -87.77287 38106 ft 475 kts 190°
2026-05-07 17:51 38.10497 -87.76966 38101 ft 472 kts 191°
2026-05-07 17:52 38.05044 -87.76743 38103 ft 471 kts 191°
2026-05-07 17:52 37.98457 -87.76469 38106 ft 472 kts 191°
2026-05-07 17:53 37.91861 -87.75703 38118 ft 494 kts 177°
2026-05-07 17:53 37.88590 -87.74251 38134 ft 513 kts 167°
2026-05-07 17:53 37.85359 -87.72194 38128 ft 523 kts 162°
2026-05-07 17:54 37.79007 -87.67551 38130 ft 524 kts 163°
2026-05-07 17:54 37.72526 -87.63728 38131 ft 514 kts 168°
2026-05-07 17:55 37.66024 -87.59777 38117 ft 522 kts 164°
2026-05-07 17:55 37.59533 -87.55735 38110 ft 517 kts 167°
2026-05-07 17:56 37.53014 -87.51825 38099 ft 519 kts 166°
2026-05-07 17:56 37.46560 -87.47830 38092 ft 518 kts 166°
2026-05-07 17:57 37.40052 -87.43912 38085 ft 518 kts 167°
2026-05-07 17:57 37.33561 -87.39943 38079 ft 518 kts 167°
2026-05-07 17:58 37.27099 -87.36042 38082 ft 518 kts 167°
2026-05-07 17:58 37.20581 -87.32089 38077 ft 518 kts 168°
2026-05-07 17:59 37.14117 -87.28192 38081 ft 518 kts 169°
2026-05-07 17:59 37.07623 -87.24276 38079 ft 518 kts 169°
2026-05-07 18:00 37.01128 -87.20368 38080 ft 517 kts 169°
2026-05-07 18:00 36.94965 -87.16670 38000 ft 517 kts 170°
2026-05-07 18:01 36.88448 -87.12765 38080 ft 518 kts 170°
2026-05-07 18:01 36.81941 -87.08870 38072 ft 518 kts 170°
2026-05-07 18:02 36.72203 -87.03060 38074 ft 518 kts 170°
2026-05-07 18:03 36.65699 -86.99188 38070 ft 518 kts 170°
2026-05-07 18:03 36.59209 -86.95331 38069 ft 518 kts 170°
2026-05-07 18:04 36.52694 -86.91467 38070 ft 517 kts 170°
2026-05-07 18:04 36.46230 -86.87640 38064 ft 517 kts 170°
2026-05-07 18:05 36.39721 -86.83795 38057 ft 517 kts 170°
2026-05-07 18:05 36.33806 -86.80306 38064 ft 517 kts 170°
2026-05-07 18:06 36.27474 -86.76576 38057 ft 517 kts 170°
2026-05-07 18:06 36.21108 -86.72835 38083 ft 517 kts 170°
2026-05-07 18:07 36.14798 -86.69133 38072 ft 517 kts 170°
2026-05-07 18:07 36.08405 -86.64733 38081 ft 527 kts 165°
2026-05-07 18:08 36.02020 -86.60259 38084 ft 526 kts 165°
2026-05-07 18:08 35.95831 -86.55890 38061 ft 526 kts 165°
2026-05-07 18:09 35.89468 -86.51422 38059 ft 525 kts 165°
2026-05-07 18:09 35.83237 -86.47055 38073 ft 525 kts 165°
2026-05-07 18:10 35.77048 -86.42718 38053 ft 525 kts 165°
2026-05-07 18:10 35.70855 -86.38385 38045 ft 526 kts 165°
2026-05-07 18:11 35.64669 -86.33950 38042 ft 524 kts 165°
2026-05-07 18:11 35.58502 -86.29605 38041 ft 522 kts 165°
2026-05-07 18:12 35.52376 -86.25265 38037 ft 522 kts 165°
2026-05-07 18:12 35.46207 -86.20911 38059 ft 522 kts 165°
2026-05-07 18:13 35.40260 -86.16014 38045 ft 538 kts 155°
2026-05-07 18:13 35.34400 -86.10275 37628 ft 541 kts 155°
2026-05-07 18:13 35.31435 -86.07417 36994 ft 543 kts 155°
2026-05-07 18:14 35.28472 -86.04559 36458 ft 542 kts 155°
2026-05-07 18:14 35.25519 -86.01690 35908 ft 541 kts 155°
2026-05-07 18:14 35.22558 -85.98842 35355 ft 542 kts 155°
2026-05-07 18:14 35.19568 -85.96002 34781 ft 544 kts 155°
2026-05-07 18:15 35.16574 -85.93151 34188 ft 545 kts 155°
2026-05-07 18:15 35.13746 -85.90435 33615 ft 547 kts 154°
2026-05-07 18:15 35.10750 -85.87556 32981 ft 546 kts 155°
2026-05-07 18:15 35.07762 -85.84707 32391 ft 542 kts 155°
2026-05-07 18:16 35.04813 -85.81906 31801 ft 539 kts 155°
2026-05-07 18:16 35.01857 -85.79093 31226 ft 537 kts 155°
2026-05-07 18:16 34.98917 -85.76287 30649 ft 533 kts 155°
2026-05-07 18:16 34.95999 -85.73515 30046 ft 530 kts 155°
2026-05-07 18:17 34.93095 -85.70761 29420 ft 526 kts 155°
2026-05-07 18:17 34.90208 -85.68021 28826 ft 521 kts 155°
2026-05-07 18:17 34.87365 -85.65328 28316 ft 515 kts 155°
2026-05-07 18:17 34.84569 -85.62683 27711 ft 513 kts 154°
2026-05-07 18:18 34.81766 -85.60025 27158 ft 509 kts 154°
2026-05-07 18:18 34.78982 -85.57389 26590 ft 506 kts 155°
2026-05-07 18:18 34.76223 -85.54781 26030 ft 497 kts 154°
2026-05-07 18:18 34.73535 -85.52230 25490 ft 484 kts 155°
2026-05-07 18:19 34.70900 -85.49742 24971 ft 477 kts 155°
2026-05-07 18:19 34.68276 -85.47284 24454 ft 476 kts 155°
2026-05-07 18:19 34.65663 -85.44828 23916 ft 475 kts 154°
2026-05-07 18:19 34.63058 -85.42366 23342 ft 474 kts 154°
2026-05-07 18:20 34.60472 -85.39925 22804 ft 469 kts 154°
2026-05-07 18:20 34.57916 -85.37517 22286 ft 460 kts 154°
2026-05-07 18:20 34.55408 -85.35159 21777 ft 452 kts 154°
2026-05-07 18:20 34.52940 -85.32845 21265 ft 445 kts 154°
2026-05-07 18:21 34.50507 -85.30565 20784 ft 439 kts 154°
2026-05-07 18:21 34.48108 -85.28311 20306 ft 434 kts 154°
2026-05-07 18:21 34.45710 -85.26070 19811 ft 434 kts 155°
2026-05-07 18:21 34.43317 -85.23839 19351 ft 434 kts 154°
2026-05-07 18:22 34.40916 -85.21610 18859 ft 433 kts 156°
2026-05-07 18:22 34.39332 -85.20143 18525 ft 434 kts 154°
2026-05-07 18:22 34.36149 -85.17127 17814 ft 433 kts 153°
2026-05-07 18:22 34.33783 -85.14903 17324 ft 427 kts 153°
2026-05-07 18:23 34.31439 -85.12732 16826 ft 422 kts 153°
2026-05-07 18:23 34.29146 -85.10610 16329 ft 418 kts 153°
2026-05-07 18:23 34.26852 -85.08468 15835 ft 415 kts 152°
2026-05-07 18:23 34.24577 -85.06343 15326 ft 411 kts 152°
2026-05-07 18:24 34.22309 -85.04236 14829 ft 412 kts 152°
2026-05-07 18:24 34.20031 -85.02126 14331 ft 413 kts 151°
2026-05-07 18:24 34.17754 -85.00012 13832 ft 414 kts 150°
2026-05-07 18:24 34.15465 -84.97884 13284 ft 415 kts 150°
2026-05-07 18:25 34.11266 -84.93931 13023 ft 399 kts 149°
2026-05-07 18:25 34.09079 -84.91846 12995 ft 402 kts 149°
2026-05-07 18:25 34.06880 -84.89766 12989 ft 402 kts 150°
2026-05-07 18:26 34.04678 -84.87691 12989 ft 402 kts 150°
2026-05-07 18:26 34.02506 -84.85634 12986 ft 401 kts 149°
2026-05-07 18:26 34.00309 -84.83558 12983 ft 401 kts 150°
2026-05-07 18:26 33.98109 -84.81485 12973 ft 401 kts 150°
2026-05-07 18:27 33.95888 -84.79451 12979 ft 397 kts 155°
2026-05-07 18:27 33.93467 -84.77999 12975 ft 385 kts 167°
2026-05-07 18:27 33.90980 -84.76813 12973 ft 383 kts 168°
2026-05-07 18:27 33.88494 -84.75642 12974 ft 385 kts 167°
2026-05-07 18:28 33.86015 -84.74406 12968 ft 385 kts 166°
2026-05-07 18:28 33.83574 -84.73169 12927 ft 386 kts 166°
2026-05-07 18:28 33.81202 -84.71994 12929 ft 385 kts 167°
2026-05-07 18:28 33.78715 -84.70780 12931 ft 386 kts 167°
2026-05-07 18:29 33.76235 -84.69560 12930 ft 386 kts 167°
2026-05-07 18:29 33.73753 -84.68331 12922 ft 385 kts 167°
2026-05-07 18:29 33.71381 -84.67159 12926 ft 386 kts 167°
2026-05-07 18:29 33.68895 -84.65936 12924 ft 384 kts 167°
2026-05-07 18:30 33.66425 -84.64720 12924 ft 383 kts 167°
2026-05-07 18:30 33.63946 -84.63502 12925 ft 385 kts 167°
2026-05-07 18:30 33.61467 -84.62283 12924 ft 384 kts 167°
2026-05-07 18:30 33.58992 -84.61066 12924 ft 384 kts 167°
2026-05-07 18:31 33.56661 -84.59921 12911 ft 384 kts 166°
2026-05-07 18:31 33.54301 -84.58332 12880 ft 397 kts 149°
2026-05-07 18:31 33.52359 -84.55920 12874 ft 409 kts 130°
2026-05-07 18:31 33.51028 -84.52871 12876 ft 417 kts 111°
2026-05-07 18:32 33.50446 -84.49459 12883 ft 420 kts 93°
2026-05-07 18:32 33.50671 -84.45988 12891 ft 417 kts 74°
2026-05-07 18:32 33.51519 -84.42745 12898 ft 399 kts 65°
2026-05-07 18:32 33.52502 -84.39697 12884 ft 386 kts 65°
2026-05-07 18:33 33.53368 -84.36686 12862 ft 376 kts 70°
2026-05-07 18:33 33.53912 -84.33653 12809 ft 371 kts 83°
2026-05-07 18:33 33.53945 -84.30536 12559 ft 377 kts 94°
2026-05-07 18:33 33.53733 -84.27387 12091 ft 381 kts 95°
2026-05-07 18:34 33.53601 -84.24233 11599 ft 385 kts 90°
2026-05-07 18:34 33.53661 -84.21020 11076 ft 383 kts 87°
2026-05-07 18:34 33.53742 -84.17866 10580 ft 368 kts 89°
2026-05-07 18:34 33.53730 -84.14889 10107 ft 346 kts 91°
2026-05-07 18:35 33.53693 -84.12077 9643 ft 330 kts 91°
2026-05-07 18:35 33.53696 -84.09375 9165 ft 317 kts 90°
2026-05-07 18:35 33.53714 -84.06782 8743 ft 306 kts 90°
2026-05-07 18:35 33.53719 -84.04238 8349 ft 303 kts 90°
2026-05-07 18:36 33.53715 -84.01765 7998 ft 295 kts 90°
2026-05-07 18:36 33.53712 -83.99333 7966 ft 292 kts 90°
2026-05-07 18:36 33.53886 -83.96916 7945 ft 290 kts 70°
2026-05-07 18:36 33.54835 -83.94821 7963 ft 284 kts 45°
2026-05-07 18:37 33.56273 -83.93271 7985 ft 273 kts 25°
2026-05-07 18:37 33.57964 -83.92393 7982 ft 260 kts
2026-05-07 18:37 33.59725 -83.92183 7703 ft 247 kts 347°
2026-05-07 18:37 33.61372 -83.92590 7400 ft 236 kts 331°
2026-05-07 18:38 33.62762 -83.93471 7132 ft 226 kts 317°
2026-05-07 18:38 33.63899 -83.94765 6809 ft 219 kts 303°
2026-05-07 18:38 33.64641 -83.96215 6526 ft 215 kts 290°
2026-05-07 18:38 33.65077 -83.97908 6221 ft 211 kts 278°
2026-05-07 18:39 33.65139 -83.99665 5918 ft 211 kts 266°
2026-05-07 18:39 33.64978 -84.01342 5719 ft 211 kts 264°
2026-05-07 18:39 33.64817 -84.03106 5603 ft 213 kts 264°
2026-05-07 18:39 33.64668 -84.04790 5491 ft 212 kts 264°
2026-05-07 18:40 33.64509 -84.06572 5352 ft 215 kts 265°
2026-05-07 18:40 33.64357 -84.08261 5243 ft 215 kts 265°
2026-05-07 18:40 33.64192 -84.10049 5103 ft 216 kts 263°
2026-05-07 18:40 33.63761 -84.11709 4971 ft 219 kts 252°
2026-05-07 18:41 33.63356 -84.13438 4831 ft 207 kts 259°
2026-05-07 18:41 33.63217 -84.15012 4703 ft 196 kts 269°
2026-05-07 18:41 33.63190 -84.16652 4592 ft 195 kts 270°
2026-05-07 18:41 33.63186 -84.18192 4501 ft 197 kts 270°
2026-05-07 18:42 33.63186 -84.19820 4401 ft 187 kts 270°
2026-05-07 18:42 33.63185 -84.21278 4287 ft 183 kts 270°
2026-05-07 18:42 33.63184 -84.22774 4075 ft 180 kts 271°
2026-05-07 18:42 33.63184 -84.24194 3828 ft 175 kts 271°
2026-05-07 18:43 33.63183 -84.25592 3628 ft 175 kts 271°
2026-05-07 18:43 33.63184 -84.27031 3401 ft 170 kts 270°
2026-05-07 18:43 33.63183 -84.28383 3201 ft 169 kts 271°
2026-05-07 18:43 33.63183 -84.29733 2957 ft 156 kts 270°
2026-05-07 18:44 33.63180 -84.30940 2777 ft 147 kts 272°
2026-05-07 18:44 33.63180 -84.32105 2582 ft 149 kts 270°
2026-05-07 18:44 33.63180 -84.33360 2398 ft 148 kts 271°
2026-05-07 18:44 33.63177 -84.34526 2219 ft 146 kts 271°
2026-05-07 18:45 33.63175 -84.35739 2022 ft 148 kts 271°
2026-05-07 18:45 33.63185 -84.36901 1846 ft 144 kts 273°
2026-05-07 18:45 33.63179 -84.38090 1684 ft 140 kts 272°
2026-05-07 18:45 33.63176 -84.39194 1511 ft 140 kts 275°
2026-05-07 18:46 33.63192 -84.40292 1331 ft 150 kts 274°
2026-05-07 18:46 33.63182 -84.41539 1119 ft 147 kts 272°
2026-05-07 18:46 33.63183 -84.42688 1016 ft 118 kts 269°
2026-05-07 18:46 33.63182 -84.43286 1018 ft 33 kts 271°
2026-05-07 18:47 33.63161 -84.43416 1017 ft 6 kts 212°
2026-05-07 18:47 33.63057 -84.43419 1017 ft 16 kts 175°
2026-05-07 18:47 33.62944 -84.43407 1016 ft 15 kts 174°
2026-05-07 18:47 33.62833 -84.43396 1016 ft 18 kts 172°
2026-05-07 18:48 33.62790 -84.43342 1016 ft 8 kts 82°
2026-05-07 18:48 33.62848 -84.43310 1016 ft 18 kts
2026-05-07 18:48 33.63003 -84.43313 1017 ft 21 kts 358°
2026-05-07 18:48 33.63065 -84.43279 1017 ft 8 kts 60°
2026-05-07 18:49 33.63075 -84.43135 1017 ft 27 kts 88°
2026-05-07 18:49 33.63064 -84.42942 1017 ft 8 kts 127°
2026-05-07 18:49 33.62979 -84.42917 1016 ft 22 kts 174°